User: anonymous   Login
Location: *
(45.0500°N, 12.0500°E)
Time: 13:36:27
(UTC+00:00)
Language:

Cosmos 1461 - Orbit

View from above orbital plane
View from above orbital plane
View from above satellite
View from above satellite

Ground track
Ground track

The orbit data is extracted from the following two-line orbital elements,

1 14064U 83044A   20188.88805411 +.00000165 +00000-0 +28205-4 0  9991
2 14064 065.0012 069.4597 0113051 315.4320 043.7745 14.94742612890052
Epoch (UTC): 06 July 2020 21:18:47
Eccentricity: 0.0113051
inclination: 65.0012°
perigee height: 504 km
apogee height: 662 km
right ascension of ascending node: 69.4597°
argument of perigee: 315.4320°
revolutions per day: 14.94742612
mean anomaly at epoch: 43.7745°
orbit number at epoch: 89005

The dashed part of the orbit path shows where the satellite is in the earth's shadow,  

DLR